Location: Clandonald
(53.5720°N, 110.7141°W)
Time: 20:29:47
(UTC+00:00)

Envisat - Pass Details

Date: 30 October 2019
Orbit: 764 x 766 km, 98.1° (Epoch: 20 November)

Event Time Altitude Azimuth Distance (km) Brightness Sun altitude
Rises 01:17:57 0° 168° (SSE) 3,223 6.2 -12.6°
Reaches altitude 10° 01:20:15 10° 170° (S) 2,301 5.4 -12.9°
Maximum altitude 01:25:20 76° 256° (WSW) 794 3.2 -13.7°
Drops below altitude 10° 01:30:26 10° 343° (NNW) 2,317 5.7 -14.5°
Sets 01:32:46 0° 345° (NNW) 3,247 6.4 -14.8°
